Location: Ferchesar
(52.6477°N, 12.4298°E)
Time: 04:34:23
(UTC+01:00)

Vanguard 1 - Pass Details

Date: 14 December 2021
Orbit: 652 x 3830 km, 34.2° (Epoch: 21 January)

Event Time Altitude Azimuth Distance (km) Brightness Sun altitude
Rises 19:57:28 0° 200° (SSW) 5,608 14.1 -35.2°
Reaches altitude 10° 20:01:39 10° 187° (S) 5,061 13.6 -35.8°
Enters shadow 20:09:08 24° 158° (SSE) 4,710 13.2 -36.9°
